Location: Nelson
(38.9945°N, 93.0321°W)
Time: 04:51:43
(UTC+00:00)

BlueWalker 3 - Visible Passes

Search period start: 24 June 2024 00:00
Search period end: 04 July 2024 00:00
Orbit: 480 x 493 km, 53.2° (Epoch: 23 June)

Date Brightness Start Highest point End Pass type
(mag) Time Alt. Az. Time Alt. Az. Time Alt. Az.
24 Jun 5.2 03:37:07 10° NW 03:38:36 12° NNW 03:40:04 10° N visible
24 Jun 4.3 06:54:31 10° NNW 06:57:32 22° NNE 07:00:33 10° E visible
24 Jun 2.6 08:32:15 10° WNW 08:34:43 36° WNW 08:34:43 36° WNW visible
25 Jun 5.1 03:11:14 10° NW 03:12:49 12° NNW 03:14:25 10° N visible
25 Jun 4.3 06:28:50 10° NNW 06:31:47 21° NNE 06:33:15 17° ENE visible
25 Jun 4.0 08:06:31 10° NW 08:07:29 17° WNW 08:07:29 17° WNW visible
26 Jun 5.0 02:45:20 10° NW 02:47:02 13° NNW 02:48:45 10° N visible
26 Jun 4.2 06:03:08 10° NNW 06:06:01 20° NNE 06:07:01 18° NE visible
26 Jun 4.4 07:40:46 10° NW 07:41:17 14° NW 07:41:17 14° NW visible
27 Jun 4.9 02:19:26 10° NW 02:21:15 13° NNW 02:23:04 10° NNE visible
27 Jun 4.2 05:37:26 10° NNW 05:40:14 20° NNE 05:41:12 18° NE visible
27 Jun 4.5 07:15:01 10° NW 07:15:29 13° NW 07:15:29 13° NW visible
28 Jun 4.3 05:11:44 10° NNW 05:14:27 19° NNE 05:15:36 17° NE visible
28 Jun 4.5 06:49:15 10° NW 06:49:54 15° NW 06:49:54 15° NW visible
29 Jun 4.3 04:46:01 10° NNW 04:48:40 18° NNE 04:50:09 15° NE visible
29 Jun 4.3 06:23:29 10° NW 06:24:28 17° NW 06:24:28 17° NW visible
30 Jun 4.4 04:20:18 10° NNW 04:22:52 17° NNE 04:24:47 13° ENE visible
30 Jun 4.1 05:57:43 10° NW 05:59:05 21° NW 05:59:05 21° NW visible
01 Jul 4.4 03:54:34 10° NNW 03:57:03 17° NNE 03:59:29 10° ENE visible
01 Jul 3.7 05:31:56 10° NW 05:33:48 28° NW 05:33:48 28° NW visible
02 Jul 4.4 03:28:50 10° NNW 03:31:14 16° NNE 03:33:37 10° ENE visible
02 Jul 3.2 05:06:10 10° NW 05:08:35 37° NW 05:08:35 37° NW visible
03 Jul 4.4 03:03:05 10° NNW 03:05:23 15° NNE 03:07:41 10° ENE visible
03 Jul 2.6 04:40:23 10° NW 04:43:24 52° NNW 04:43:24 52° NNW visible
